[[{"header":{"parameterUnit":"m.s-1","parameterCategory":2,"la1":30.2991,"la2":30.254,"lo1":-89.0895,"lo2":-89.0444,"dy":0.0017,"dx":0.0017,"nx":28,"ny":28,"refTime":"2024-07-05T21:00:00:Z","depth":"0","parameterNumber":2,"parameterNumberName":"U-component_of_CURRENTS"},"data":[0,0,0,0,0,0,0,0,0,0,0,0,0,0,0,0,0,0,0,0,0,0,0,0,0,0,0,0,0,0,0,0,0,0,0,0,0,0,0,0,0,0,0,0,0,0,0,0,0,0,0,0,0,0,0,0,0,0,0.4771,0.4772,0,0.4873,0.4875,0.4876,0.484,0.4837,0.4835,0.4833,0.4813,0.4815,0.4816,0,0,0,0,0,0,0,0,0,0,0,0,0,0.4634,0.4636,0.4771,0.4772,0.4774,0.4873,0.4875,0.4876,0.484,0.4837,0.4835,0.4832,0.4813,0.4815,0.4816,0,0,0,0,0,0,0,0,0,0,0,0,0,0.4709,0.4637,0.4771,0.4769,0.477,0.4873,0.4875,0.4876,0.4841,0.4837,0.4834,0.4831,0.4812,0.4815,0.4817,0.4895,0,0,0.4823,0.4824,0,0,0,0,0,0,0,0,0.4705,0.4714,0.4768,0.4769,0.477,0.4842,0.4819,0.4877,0.4841,0.4812,0.4833,0.4829,0.4815,0.4817,0.4843,0.4894,0.4893,0.4824,0.4825,0.4826,0.4827,0,0,0,0,0,0,0,0.47,0.471,0.481,0.477,0.4771,0.4794,0.48,0.4831,0.4827,0.4814,0.4812,0.4827,0.4814,0.4841,0.4842,0.4893,0.4824,0.4826,0.4827,0.4828,0.4992,0.4995,0,0,0,0,0,0,0.4689,0.4705,0.4807,0.4813,0.4731,0.4799,0.4806,0.4821,0.4829,0.4829,0.483,0.4825,0.4839,0.4839,0.4841,0.4927,0.4826,0.4828,0.4829,0.4989,0.4993,0.4996,0,0,0,0,0,0,0.4686,0.4698,0.4803,0.4762,0.4777,0.4804,0.4822,0.4825,0.4848,0.4843,0.4839,0.4849,0.4836,0.4838,0.4873,0.4925,0.4829,0.4831,0.4985,0.499,0.4994,0.5103,0,0,0,0,0,0,0.4682,0.4696,0.471,0.4762,0.4779,0.4875,0.4825,0.4829,0.4863,0.4858,0.4859,0.4854,0.4834,0.487,0.4875,0.4926,0.4833,0.4982,0.4988,0.4993,0.5095,0.511,0.5123,0,0,0,0,0,0.4677,0.471,0.471,0.4723,0.4795,0.4878,0.489,0.4897,0.4867,0.4901,0.4891,0.4853,0.4909,0.4875,0.488,0.4933,0.4979,0.4986,0.4992,0.5089,0.5107,0.5123,0,0,0,0,0,0,0.4655,0.4712,0.4712,0.4759,0.4818,0.4872,0.491,0.4911,0.4937,0.4922,0.4896,0.4894,0.4964,0.4933,0.4895,0.4999,0.4938,0.4947,0.501,0.5027,0.5041,0.5094,0.4835,0,0,0,0,0,0.4661,0.4707,0.4759,0.4806,0.4834,0.4875,0.4908,0.4917,0.4946,0.4954,0.496,0.4965,0.5004,0.4996,0.504,0.508,0.5123,0.5117,0.5132,0.5143,0.5193,0.5295,0.5323,0.5018,0.5018,0.5018,0,0,0.4665,0.4708,0.4731,0.4807,0.4851,0.4913,0.4887,0.4952,0.5006,0.495,0.5022,0.5039,0.5038,0.5103,0.5126,0.5068,0.5256,0.5152,0.5162,0.5206,0.5305,0.5335,0.5361,0.5023,0.5022,0.5021,0,0,0.4701,0.474,0.4781,0.4838,0.4912,0.4955,0.4975,0.504,0.5069,0.5137,0.5129,0.5182,0.5205,0.524,0.5248,0.5368,0.5358,0.5355,0.5432,0.553,0.5556,0.558,0.5685,0.5718,0.5322,0.5322,0.5323,0,0.4697,0.4762,0.4811,0.4868,0.4928,0.4973,0.5037,0.5094,0.5164,0.5208,0.5166,0.5285,0.5287,0.5383,0.5422,0.5406,0.5451,0.5359,0.555,0.5574,0.5597,0.5699,0.5733,0.5328,0.5328,0.5327,0.5327,0,0.4764,0.4816,0.4859,0.4948,0.502,0.5097,0.5176,0.5253,0.5285,0.5327,0.5445,0.5468,0.5523,0.5535,0.5511,0.5668,0.5648,0.5586,0.5507,0.5634,0.5733,0.5767,0.5337,0.5335,0.5333,0.5332,0,0,0.4748,0.4875,0.4887,0.4941,0.5072,0.5139,0.5261,0.5386,0.5474,0.5528,0.5636,0.572,0.5725,0.5742,0.573,0.5807,0.6009,0.5757,0.5759,0.5865,0.624,0.604,0.6057,0.5961,0.5967,0.5972,0.6249,0,0.4784,0.4887,0.496,0.5085,0.5149,0.5258,0.5372,0.5487,0.5584,0.5705,0.5749,0.5854,0.5798,0.5835,0.5908,0.6004,0.6101,0.5941,0.6101,0.6108,0.5915,0.609,0.5715,0.5913,0.6282,0.6288,0.6292,0,0.4818,0.489,0.4996,0.5157,0.5199,0.528,0.5493,0.5609,0.5784,0.5858,0.5955,0.5996,0.6145,0.6062,0.629,0.6181,0.6243,0.6297,0.6306,0.6112,0.597,0.5844,0.596,0.5815,0.6343,0.6339,0.6335,0,0.4778,0.4922,0.5012,0.5067,0.5247,0.5326,0.544,0.5633,0.5769,0.5967,0.6079,0.6207,0.6308,0.6407,0.6487,0.6417,0.6723,0.6626,0.6519,0.6506,0.6219,0.6168,0.6213,0.6822,0.6821,0.682,0.6819,0,0.4801,0.4877,0.4989,0.5039,0.5179,0.5302,0.5479,0.5631,0.5841,0.6009,0.614,0.6283,0.6405,0.655,0.659,0.6659,0.6804,0.6608,0.6582,0.6243,0.6193,0.6073,0.6018,0.6831,0.6828,0.6826,0.6825,0,0.4782,0.4843,0.4964,0.5116,0.5158,0.5271,0.5494,0.5647,0.5847,0.6079,0.6154,0.6406,0.6583,0.668,0.6873,0.6795,0.6676,0.6861,0.6454,0.6371,0.605,0.6013,0.5907,0.5748,0.6806,0.6803,0.68,0,0.4797,0.4839,0.4992,0.508,0.5157,0.5305,0.5428,0.5627,0.5786,0.6133,0.6243,0.649,0.6579,0.6777,0.6692,0.6727,0.6599,0.6437,0.6225,0.604,0.5985,0.5806,0.5669,0.5921,0.5912,0.5904,0.5898,0,0.4856,0.4899,0.5013,0.5148,0.5267,0.5391,0.5548,0.5641,0.5893,0.6042,0.6237,0.6326,0.6459,0.6278,0.6316,0.6293,0.6074,0.6273,0.6196,0.5412,0.5113,0.4938,0.5762,0.5828,0.5835,0.584,0.5844,0.5847,0.4921,0.5011,0.5131,0.526,0.5379,0.5448,0.5428,0.5587,0.5706,0.579,0.6033,0.5974,0.5921,0.5857,0.5816,0.5504,0.5592,0.531,0.5331,0.521,0.4876,0.5548,0.5483,0.5487,0.5492,0.5495,0.5499,0,0.4989,0.5087,0.5236,0.5332,0.5367,0.5418,0.5486,0.5369,0.533,0.5459,0.5474,0.5297,0.5111,0.5061,0.4821,0.4606,0.4412,0.4502,0.4189,0.4141,0.484,0.4613,0.4211,0.4211,0.4211,0.4212,0.4212,0.4212,0.5046,0.5166,0.5211,0.525,0.5267,0.5112,0.5035,0.4899,0.486,0.4631,0.4447,0.4458,0.4534,0.4414,0.4149,0.4037,0.3793,0.3522,0.3681,0.4179,0.4256,0.4329,0.4104,0.3602,0.3602,0.2723,0.2716,0.2711]},{"header":{"parameterUnit":"m.s-1","parameterCategory":2,"la1":30.2991,"la2":30.254,"lo1":-89.0895,"lo2":-89.0444,"dy":0.0017,"dx":0.0017,"nx":28,"ny":28,"refTime":"2024-07-05T21:00:00:Z","depth":"0","parameterNumber":3,"parameterNumberName":"V-component_of_CURRENTS"},"data":[0,0,0,0,0,0,0,0,0,0,0,0,0,0,0,0,0,0,0,0,0,0,0,0,0,0,0,0,0,0,0,0,0,0,0,0,0,0,0,0,0,0,0,0,0,0,0,0,0,0,0,0,0,0,0,0,0,0,0.0145,0.0145,0,0.0125,0.0125,0.0124,0.0086,0.0085,0.0085,0.0084,0.0043,0.0042,0.0042,0,0,0,0,0,0,0,0,0,0,0,0,0,0.0106,0.0107,0.0145,0.0145,0.0145,0.0125,0.0125,0.0124,0.0086,0.0085,0.0084,0.0084,0.0043,0.0042,0.0042,0,0,0,0,0,0,0,0,0,0,0,0,0,0.0106,0.0107,0.0145,0.0125,0.0123,0.0125,0.0125,0.0124,0.0086,0.0085,0.0084,0.0083,0.0043,0.0042,0.0042,0.0053,0,0,0.0039,0.0039,0,0,0,0,0,0,0,0,0.0106,0.0107,0.0128,0.0126,0.0124,0.0109,0.0096,0.01,0.0086,0.0098,0.0084,0.0083,0.0065,0.0062,0.0058,0.0051,0.0049,0.0039,0.0038,0.0038,0.0038,0,0,0,0,0,0,0,0.0106,0.0108,0.0135,0.0128,0.0126,0.0102,0.0101,0.0096,0.0084,0.0097,0.0094,0.0096,0.0063,0.0059,0.0056,0.0049,0.0039,0.0038,0.0038,0.0037,0.0043,0.0044,0,0,0,0,0,0,0.0117,0.0108,0.0135,0.0134,0.0115,0.0104,0.0103,0.0113,0.0085,0.008,0.0097,0.0094,0.006,0.0057,0.0055,0.0095,0.0038,0.0037,0.0037,0.0043,0.0044,0.0044,0,0,0,0,0,0,0.0116,0.012,0.0136,0.0122,0.0122,0.0106,0.0117,0.0113,0.0113,0.0085,0.008,0.0102,0.006,0.0056,0.0056,0.0092,0.0037,0.0036,0.0042,0.0043,0.0044,0.0158,0,0,0,0,0,0,0.0115,0.012,0.0128,0.0123,0.0124,0.0155,0.0118,0.0113,0.0116,0.0113,0.0089,0.0083,0.0059,0.0058,0.0055,0.009,0.0035,0.0041,0.0042,0.0044,0.0154,0.0163,0.0171,0,0,0,0,0,0.0114,0.0144,0.0128,0.0132,0.0137,0.0157,0.0156,0.0138,0.0118,0.0132,0.0106,0.0084,0.0064,0.0058,0.0055,0.009,0.004,0.0042,0.0044,0.015,0.0161,0.0171,0,0,0,0,0,0,0.0135,0.0143,0.0126,0.0156,0.0159,0.0152,0.0166,0.0149,0.0139,0.0136,0.0097,0.0091,0.0103,0.0076,0.0071,0.0092,0.0047,0.0048,0.0129,0.0139,0.0148,0.0192,0.0035,0,0,0,0,0,0.0142,0.0163,0.0163,0.0186,0.0193,0.0178,0.0181,0.0173,0.0165,0.016,0.0138,0.0115,0.0107,0.0107,0.0091,0.011,0.0104,0.0126,0.0135,0.0143,0.0174,0.019,0.0204,0.0049,0.0049,0.0049,0,0,0.0158,0.0162,0.0174,0.019,0.0191,0.0224,0.0179,0.0201,0.0226,0.0159,0.0181,0.0147,0.0116,0.0134,0.0137,0.0118,0.0181,0.0145,0.0153,0.018,0.0193,0.0208,0.0222,0.005,0.005,0.005,0,0,0.021,0.0205,0.0243,0.0255,0.0267,0.0263,0.0274,0.0273,0.0271,0.0284,0.0241,0.0235,0.0214,0.021,0.0202,0.0252,0.0224,0.0233,0.0324,0.0338,0.0352,0.0364,0.0374,0.0386,0.0243,0.0243,0.0243,0,0.0226,0.0274,0.0258,0.03,0.0324,0.0288,0.0343,0.034,0.0334,0.0348,0.0306,0.0297,0.026,0.0303,0.0309,0.0278,0.0274,0.029,0.0354,0.0365,0.0376,0.0383,0.0395,0.0248,0.0248,0.0247,0.0247,0,0.0312,0.0346,0.0375,0.0414,0.0436,0.0479,0.0479,0.0492,0.0473,0.0467,0.0492,0.0444,0.0444,0.0423,0.0379,0.0438,0.0407,0.0362,0.0337,0.0399,0.0401,0.0412,0.0257,0.0255,0.0253,0.0252,0,0,0.0363,0.0425,0.0434,0.0475,0.0505,0.0539,0.0584,0.0624,0.0668,0.0639,0.0702,0.0662,0.063,0.0619,0.0567,0.0572,0.0624,0.0504,0.0502,0.0533,0.0658,0.057,0.0572,0.0588,0.059,0.0592,0.063,0,0.0437,0.054,0.055,0.0648,0.0707,0.0699,0.075,0.0774,0.0777,0.0821,0.0783,0.0812,0.0707,0.0718,0.0706,0.0655,0.0657,0.0618,0.0578,0.0577,0.0506,0.0583,0.0549,0.0574,0.064,0.0642,0.0643,0,0.0523,0.0581,0.0696,0.078,0.0807,0.0857,0.0941,0.0982,0.1019,0.1024,0.1039,0.1002,0.1021,0.0911,0.0879,0.0858,0.0773,0.0717,0.0716,0.0608,0.0509,0.0519,0.059,0.0383,0.0658,0.0657,0.0656,0,0.0584,0.0685,0.0783,0.0814,0.09,0.0954,0.0998,0.1048,0.1118,0.1168,0.1234,0.1207,0.1246,0.1139,0.1006,0.0953,0.0963,0.0871,0.0715,0.0707,0.066,0.0643,0.0544,0.0849,0.0849,0.0849,0.0849,0,0.0672,0.0746,0.0821,0.0879,0.1,0.1032,0.1162,0.1192,0.1287,0.1425,0.1352,0.1473,0.1308,0.128,0.1102,0.0962,0.1039,0.0764,0.0724,0.0693,0.068,0.0479,0.035,0.0851,0.085,0.085,0.085,0,0.0735,0.0781,0.0899,0.1002,0.1036,0.1128,0.127,0.1372,0.1442,0.1631,0.167,0.171,0.1683,0.1486,0.1346,0.1122,0.0831,0.0883,0.0853,0.0806,0.0414,0.0293,0.0151,0.0065,0.0719,0.0718,0.0716,0,0.0785,0.0852,0.0981,0.1057,0.1111,0.124,0.134,0.1437,0.1576,0.1807,0.1931,0.1963,0.2038,0.1772,0.1374,0.1051,0.0833,0.0771,0.0641,0.0418,0.0254,0.0162,0.0094,0.0629,0.0627,0.0625,0.0624,0,0.0885,0.0924,0.1022,0.1158,0.1278,0.1423,0.1587,0.1724,0.1902,0.2101,0.2372,0.2456,0.2197,0.1867,0.1362,0.1112,0.0591,0.0721,0.0519,0.0207,0.0078,-0.0032,0.0572,0.0609,0.061,0.0611,0.0612,0.0613,0.0961,0.1041,0.1154,0.1284,0.1421,0.1611,0.1766,0.1985,0.2261,0.2587,0.2667,0.2829,0.2285,0.1602,0.123,0.0468,0.0484,0.0221,0.0107,0.0047,-0.0088,0.0469,0.0426,0.0427,0.0427,0.0427,0.0428,0,0.1064,0.1142,0.1268,0.145,0.1615,0.1664,0.1939,0.2131,0.2493,0.2777,0.3016,0.2814,0.216,0.1469,0.0437,-0.0058,-0.0215,-0.0314,-0.0437,-0.0466,0.0067,0.0007,-0.0162,-0.0162,-0.0162,-0.0161,-0.0161,-0.0161,0.1126,0.1261,0.1311,0.158,0.1717,0.1966,0.2138,0.2425,0.2665,0.2988,0.3074,0.3098,0.2526,0.0795,-0.0358,-0.0598,-0.0866,-0.0983,-0.1093,-0.0742,-0.07,-0.066,-0.0745,-0.1069,-0.107,-0.1565,-0.1571,-0.1575]}],[{"header":{"parameterUnit":"m.s-1","parameterCategory":2,"la1":30.2991,"la2":30.254,"lo1":-89.0895,"lo2":-89.0444,"dy":0.0017,"dx":0.0017,"nx":28,"ny":28,"refTime":"2024-07-05T21:00:00:Z","depth":"2","parameterNumber":2,"parameterNumberName":"U-component_of_CURRENTS"},"data":[0,0,0,0,0,0,0,0,0,0,0,0,0,0,0,0,0,0,0,0,0,0,0,0,0,0,0,0,0,0,0,0,0,0,0,0,0,0,0,0,0,0,0,0,0,0,0,0,0,0,0,0,0,0,0,0,0,0,0.3558,0.3559,0,0.3693,0.3694,0.3695,0.3703,0.3702,0.3701,0.37,0.3723,0.3725,0.3727,0,0,0,0,0,0,0,0,0,0,0,0,0,0.3431,0.3433,0.3557,0.3559,0.3561,0.3693,0.3694,0.3696,0.3704,0.3702,0.3701,0.3699,0.3723,0.3725,0.3727,0,0,0,0,0,0,0,0,0,0,0,0,0,0.3515,0.3433,0.3557,0.3583,0.3587,0.3692,0.3694,0.3696,0.3704,0.3702,0.37,0.3698,0.3722,0.3725,0.3727,0.3783,0,0,0.3736,0.3737,0,0,0,0,0,0,0,0,0.351,0.3519,0.3577,0.3582,0.3586,0.3682,0.3659,0.3721,0.3704,0.3656,0.37,0.3697,0.3703,0.3707,0.3734,0.3784,0.3785,0.3736,0.3738,0.3739,0.374,0,0,0,0,0,0,0,0.3504,0.3514,0.3608,0.358,0.3585,0.3632,0.364,0.3671,0.3684,0.3661,0.3662,0.3683,0.3703,0.3731,0.3734,0.3785,0.3736,0.3738,0.374,0.3741,0.3902,0.3904,0,0,0,0,0,0,0.3489,0.3508,0.3604,0.3612,0.3546,0.3635,0.3644,0.3651,0.3686,0.3692,0.3684,0.3683,0.3728,0.3731,0.3735,0.3816,0.3739,0.3741,0.3743,0.3899,0.3902,0.3905,0,0,0,0,0,0,0.3486,0.3496,0.3598,0.3567,0.3583,0.3639,0.3646,0.3654,0.3696,0.3706,0.3708,0.3718,0.3726,0.3731,0.3771,0.3816,0.3743,0.3745,0.3896,0.39,0.3904,0.3969,0,0,0,0,0,0,0.3481,0.3494,0.3515,0.3565,0.3584,0.3661,0.3649,0.3659,0.3712,0.3711,0.3736,0.3736,0.3725,0.3767,0.3774,0.3818,0.3747,0.3893,0.3898,0.3902,0.3964,0.3975,0.3984,0,0,0,0,0,0.3476,0.3501,0.3515,0.3528,0.3604,0.3663,0.3677,0.3709,0.3715,0.3738,0.3755,0.3736,0.3803,0.3771,0.3779,0.3825,0.389,0.3896,0.3902,0.3959,0.3973,0.3984,0,0,0,0,0,0,0.3457,0.3506,0.3521,0.356,0.3611,0.3665,0.3709,0.3728,0.3767,0.3774,0.3767,0.3769,0.3836,0.3823,0.3788,0.3889,0.3846,0.3853,0.3887,0.39,0.391,0.3965,0.3749,0,0,0,0,0,0.3465,0.3494,0.3548,0.3582,0.3615,0.367,0.3708,0.373,0.3766,0.3783,0.3803,0.3829,0.387,0.3873,0.3914,0.3956,0.3994,0.3993,0.4004,0.4012,0.4065,0.4127,0.4147,0.3924,0.3924,0.3924,0,0,0.3465,0.3503,0.3517,0.3582,0.3632,0.3686,0.3687,0.3753,0.3795,0.378,0.385,0.3883,0.3898,0.3957,0.3982,0.3941,0.4101,0.402,0.4027,0.4076,0.4135,0.4157,0.4176,0.3928,0.3928,0.3927,0,0,0.3486,0.3521,0.3558,0.3601,0.3682,0.3721,0.3742,0.3814,0.3843,0.3907,0.3925,0.3992,0.4022,0.4063,0.4079,0.4176,0.4175,0.4171,0.4243,0.4301,0.432,0.4337,0.4432,0.4457,0.4149,0.4149,0.4149,0,0.3495,0.3543,0.358,0.3632,0.3681,0.3735,0.3793,0.3837,0.3909,0.3961,0.3931,0.4074,0.4087,0.4183,0.4218,0.4205,0.4239,0.4184,0.4314,0.4332,0.4348,0.4442,0.4468,0.4153,0.4152,0.4152,0.4151,0,0.3537,0.3588,0.3621,0.3699,0.3752,0.3816,0.3877,0.3948,0.3993,0.4041,0.4162,0.4194,0.4283,0.4287,0.428,0.4412,0.4404,0.4337,0.4278,0.4375,0.4467,0.4494,0.4158,0.4157,0.4156,0.4155,0,0,0.3528,0.3632,0.3645,0.3689,0.3798,0.3836,0.394,0.4052,0.4112,0.4198,0.4311,0.4398,0.4446,0.4474,0.4481,0.4523,0.4675,0.4481,0.4482,0.4573,0.4836,0.4617,0.4625,0.4607,0.4611,0.4615,0.486,0,0.3564,0.3648,0.3704,0.3794,0.3848,0.394,0.4012,0.4114,0.4189,0.4308,0.4409,0.4509,0.4497,0.4547,0.4606,0.4668,0.4746,0.4618,0.4736,0.4742,0.4529,0.4648,0.4266,0.4431,0.4886,0.489,0.4893,0,0.3591,0.3648,0.3737,0.3838,0.3872,0.3938,0.4079,0.4151,0.4329,0.4384,0.4535,0.4619,0.4798,0.4727,0.4917,0.4827,0.4877,0.4895,0.4902,0.4701,0.4571,0.4407,0.4462,0.4938,0.4934,0.4931,0.4928,0,0.355,0.3669,0.3738,0.3774,0.3899,0.3977,0.4061,0.42,0.4274,0.4475,0.4576,0.475,0.4898,0.4965,0.5061,0.5001,0.523,0.5138,0.5007,0.4994,0.4699,0.4649,0.5291,0.529,0.529,0.5289,0.5288,0,0.3557,0.3612,0.3727,0.3761,0.386,0.3949,0.4067,0.4163,0.4325,0.4435,0.463,0.476,0.4963,0.512,0.5139,0.5168,0.5307,0.5082,0.5046,0.4709,0.466,0.5107,0.5082,0.5298,0.5296,0.5295,0.5293,0,0.3506,0.358,0.3666,0.3798,0.3846,0.392,0.4089,0.4146,0.4308,0.448,0.4576,0.4861,0.5037,0.5186,0.5341,0.5275,0.5295,0.5269,0.4884,0.4794,0.5018,0.4995,0.5172,0.5166,0.5162,0.5158,0.5154,0,0.3504,0.3519,0.3671,0.3721,0.3797,0.3918,0.3984,0.4136,0.4212,0.45,0.4589,0.4877,0.4995,0.5166,0.512,0.5135,0.5251,0.4774,0.4569,0.5062,0.5011,0.4994,0.4977,0.4248,0.4238,0.4229,0.4222,0,0.3455,0.3498,0.3572,0.3648,0.3735,0.3853,0.398,0.4035,0.4216,0.4337,0.4513,0.4634,0.4836,0.4683,0.472,0.4659,0.4719,0.4592,0.5247,0.4285,0.4194,0.4141,0.4156,0.4146,0.4153,0.4159,0.4163,0.4166,0.3441,0.3468,0.3507,0.3579,0.3668,0.3756,0.3768,0.3883,0.3963,0.4058,0.4279,0.4289,0.4364,0.4198,0.4066,0.3988,0.4293,0.4096,0.4123,0.4158,0.3955,0.3853,0.371,0.3715,0.372,0.3723,0.3727,0,0.3354,0.3383,0.3418,0.3514,0.3524,0.363,0.3709,0.3639,0.3638,0.3761,0.3815,0.3524,0.3426,0.3503,0.3252,0.3215,0.3198,0.3089,0.3043,0.3122,0.3192,0.2937,0.2425,0.242,0.2416,0.2413,0,0,0.3331,0.3305,0.3296,0.3295,0.338,0.3304,0.331,0.3231,0.3224,0.3112,0.3074,0.3286,0.3409,0.2886,0.28,0.2569,0.283,0.2473,0.3525,0.3553,0.3617,0.3786,0.3484,0,0,0,0,0]},{"header":{"parameterUnit":"m.s-1","parameterCategory":2,"la1":30.2991,"la2":30.254,"lo1":-89.0895,"lo2":-89.0444,"dy":0.0017,"dx":0.0017,"nx":28,"ny":28,"refTime":"2024-07-05T21:00:00:Z","depth":"2","parameterNumber":3,"parameterNumberName":"V-component_of_CURRENTS"},"data":[0,0,0,0,0,0,0,0,0,0,0,0,0,0,0,0,0,0,0,0,0,0,0,0,0,0,0,0,0,0,0,0,0,0,0,0,0,0,0,0,0,0,0,0,0,0,0,0,0,0,0,0,0,0,0,0,0,0,0.0112,0.0112,0,0.0089,0.0089,0.0088,0.0046,0.0046,0.0045,0.0045,0.0005,0.0004,0.0003,0,0,0,0,0,0,0,0,0,0,0,0,0,0.0067,0.0068,0.0112,0.0112,0.0112,0.0089,0.0089,0.0088,0.0046,0.0046,0.0045,0.0045,0.0005,0.0004,0.0003,0,0,0,0,0,0,0,0,0,0,0,0,0,0.0066,0.0069,0.0112,0.0092,0.009,0.009,0.0089,0.0088,0.0046,0.0046,0.0045,0.0044,0.0005,0.0004,0.0003,0.001,0,0,0.0,-0.0,0,0,0,0,0,0,0,0,0.0066,0.0067,0.0095,0.0093,0.0091,0.0073,0.0058,0.0062,0.0046,0.0059,0.0045,0.0044,0.0029,0.0026,0.0018,0.0008,0.0007,-0.0,-0.0001,-0.0001,-0.0001,0,0,0,0,0,0,0,0.0066,0.0068,0.0099,0.0095,0.0093,0.0066,0.0065,0.0058,0.0044,0.0057,0.0055,0.0059,0.0027,0.0019,0.0017,0.0006,0.0,-0.0001,-0.0001,-0.0002,-0.0014,-0.0014,0,0,0,0,0,0,0.0081,0.0068,0.01,0.0099,0.0081,0.0068,0.0067,0.0076,0.0045,0.0041,0.006,0.0058,0.0021,0.0018,0.0015,0.0041,-0.0001,-0.0002,-0.0003,-0.0015,-0.0014,-0.0014,0,0,0,0,0,0,0.008,0.0085,0.0101,0.0086,0.0086,0.007,0.0081,0.0076,0.0073,0.0048,0.0042,0.0063,0.002,0.0016,0.0016,0.0039,-0.0002,-0.0003,-0.0015,-0.0015,-0.0014,0.0082,0,0,0,0,0,0,0.0079,0.0084,0.0093,0.0087,0.0088,0.0112,0.0082,0.0077,0.0079,0.0075,0.0048,0.0043,0.0019,0.0018,0.0015,0.0037,-0.0004,-0.0015,-0.0015,-0.0014,0.0078,0.0085,0.0091,0,0,0,0,0,0.0078,0.0108,0.0093,0.0097,0.0101,0.0113,0.0111,0.0094,0.008,0.0086,0.0066,0.0044,0.0018,0.0018,0.0015,0.0036,-0.0016,-0.0015,-0.0014,0.0075,0.0084,0.0091,0,0,0,0,0,0,0.0096,0.0106,0.009,0.0121,0.0118,0.0108,0.0118,0.0103,0.0092,0.0091,0.0056,0.0051,0.0051,0.003,0.003,0.003,-0.0005,-0.0005,0.0064,0.0072,0.0078,0.0108,-0.0005,0,0,0,0,0,0.0104,0.0125,0.0122,0.0144,0.0148,0.0131,0.0133,0.0125,0.0117,0.0111,0.009,0.0067,0.0051,0.0052,0.0028,0.0043,0.0016,0.0049,0.0056,0.0062,0.0082,0.0052,0.0058,-0.0012,-0.0012,-0.0012,0,0,0.0118,0.0125,0.0136,0.0148,0.0144,0.0169,0.013,0.0148,0.0167,0.011,0.0126,0.0089,0.0056,0.0062,0.0061,0.0051,0.0066,0.0063,0.0068,0.0085,0.0053,0.006,0.0067,-0.0012,-0.0012,-0.0012,0,0,0.0164,0.0162,0.0195,0.0202,0.0209,0.0203,0.0213,0.0208,0.0202,0.0209,0.0169,0.0154,0.013,0.0117,0.0105,0.0137,0.0094,0.012,0.0194,0.0165,0.0171,0.0176,0.0151,0.0153,0.0134,0.0134,0.0134,0,0.0177,0.0223,0.0205,0.024,0.0261,0.0225,0.0271,0.0262,0.0255,0.0262,0.0226,0.0192,0.016,0.0178,0.0182,0.0157,0.0129,0.0171,0.0176,0.018,0.0184,0.0157,0.0158,0.0139,0.0138,0.0138,0.0137,0,0.0251,0.0284,0.0309,0.0339,0.0353,0.039,0.0383,0.0389,0.037,0.0356,0.0355,0.0304,0.029,0.0267,0.0236,0.0251,0.0219,0.0181,0.0163,0.0197,0.0166,0.0165,0.0146,0.0144,0.0142,0.0141,0,0,0.0293,0.0351,0.0359,0.0397,0.0417,0.0444,0.0474,0.0498,0.0534,0.0486,0.0526,0.047,0.0433,0.0417,0.037,0.0344,0.0337,0.0283,0.0279,0.0273,0.0275,0.02,0.0192,0.0296,0.0297,0.0297,0.0243,0,0.0357,0.045,0.0458,0.0545,0.0597,0.0585,0.0625,0.0636,0.0623,0.0645,0.0581,0.0591,0.0493,0.0499,0.0453,0.0373,0.0339,0.0355,0.023,0.0227,0.0168,0.019,0.0226,0.0176,0.0242,0.0242,0.0242,0,0.0429,0.0486,0.0588,0.0672,0.0694,0.074,0.0806,0.0839,0.0843,0.0838,0.0814,0.0755,0.0725,0.063,0.0506,0.0519,0.0409,0.0328,0.0323,0.0224,0.0152,0.015,0.0172,0.0241,0.0241,0.0241,0.0241,0,0.0485,0.0579,0.0671,0.0699,0.078,0.083,0.0874,0.09,0.0966,0.097,0.1019,0.0924,0.093,0.0762,0.0574,0.0548,0.0424,0.0367,0.0194,0.0187,0.018,0.0171,0.0274,0.0274,0.0274,0.0274,0.0274,0,0.0565,0.0636,0.0711,0.0767,0.0888,0.0914,0.104,0.1062,0.1136,0.1246,0.1135,0.1196,0.0964,0.0853,0.0638,0.0419,0.0468,0.0217,0.0171,0.0211,0.0206,0.0229,0.0225,0.0272,0.0273,0.0273,0.0273,0,0.0624,0.0667,0.0784,0.0887,0.0923,0.1018,0.1169,0.1267,0.1317,0.1461,0.1483,0.1428,0.128,0.1012,0.0763,0.054,0.031,0.0214,0.0272,0.0232,0.0078,0.0079,0.0029,0.0026,0.0023,0.0021,0.002,0,0.0671,0.0735,0.0868,0.0955,0.1014,0.115,0.1259,0.1349,0.1474,0.1611,0.1704,0.1612,0.155,0.1137,0.0735,0.0342,0.0294,0.0111,0.0053,0.0094,0.0054,0.0059,0.0063,0.0086,0.0085,0.0084,0.0084,0,0.0766,0.0807,0.0906,0.1074,0.1207,0.1361,0.1527,0.1653,0.1791,0.1904,0.2024,0.1979,0.1606,0.1209,0.0666,0.0399,0.0164,0.0077,0.0131,0.0127,0.0139,0.0102,0.0107,0.0076,0.0076,0.0077,0.0077,0.0078,0.0845,0.0931,0.1061,0.1216,0.137,0.1572,0.1717,0.1893,0.2093,0.2247,0.2211,0.213,0.1722,0.1001,0.056,0.0096,0.0116,-0.006,-0.0052,-0.0045,-0.0044,-0.004,-0.0135,-0.0136,-0.0136,-0.0136,-0.0137,0,0.0963,0.105,0.1197,0.1406,0.1587,0.1649,0.1897,0.2024,0.2247,0.233,0.2363,0.1948,0.1522,0.1044,0.0359,-0.0054,-0.0062,-0.0192,-0.0099,-0.0088,-0.0079,-0.0077,-0.0179,-0.018,-0.0181,-0.0182,0,0,0.1031,0.1192,0.1249,0.1546,0.1701,0.1932,0.2074,0.2226,0.2315,0.2353,0.2289,0.2163,0.1633,0.1127,0.059,0.0204,0.0147,0.0121,0.0198,0.0382,0.0396,0.0038,0.0057,0,0,0,0,0]}],[{"header":{"parameterUnit":"m.s-1","parameterCategory":2,"la1":30.2991,"la2":30.254,"lo1":-89.0895,"lo2":-89.0444,"dy":0.0017,"dx":0.0017,"nx":28,"ny":28,"refTime":"2024-07-05T21:00:00:Z","depth":"4","parameterNumber":2,"parameterNumberName":"U-component_of_CURRENTS"},"data":[0,0,0,0,0,0,0,0,0,0,0,0,0,0,0,0,0,0,0,0,0,0,0,0,0,0,0,0,0,0,0,0,0,0,0,0,0,0,0,0,0,0,0,0,0,0,0,0,0,0,0,0,0,0,0,0,0,0,0.1984,0.1986,0,0.2077,0.2077,0.2077,0.2145,0.2147,0.2148,0.215,0.2257,0.2258,0.2259,0,0,0,0,0,0,0,0,0,0,0,0,0,0.1885,0.1886,0.1984,0.1986,0.1988,0.2077,0.2077,0.2077,0.2145,0.2147,0.2149,0.215,0.2256,0.2258,0.2259,0,0,0,0,0,0,0,0,0,0,0,0,0,0.1938,0.1886,0.1984,0.2041,0.2047,0.2077,0.2077,0.2077,0.2145,0.2147,0.2149,0.2151,0.2256,0.2258,0.226,0.2226,0,0,0.2266,0.2267,0,0,0,0,0,0,0,0,0.1935,0.194,0.203,0.2037,0.2045,0.2111,0.2082,0.2131,0.2144,0.2096,0.215,0.2152,0.2214,0.222,0.2217,0.2231,0.2235,0.2266,0.2267,0.2268,0.2269,0,0,0,0,0,0,0,0.1931,0.1937,0.201,0.2032,0.2041,0.2069,0.2078,0.2091,0.2133,0.2101,0.2109,0.2135,0.2217,0.2215,0.222,0.2237,0.2266,0.2268,0.2269,0.227,0.2396,0.2398,0,0,0,0,0,0,0.1937,0.1933,0.2007,0.2014,0.2006,0.207,0.2079,0.2079,0.2133,0.2147,0.2133,0.2138,0.221,0.2218,0.2224,0.2326,0.2268,0.227,0.2272,0.2394,0.2397,0.2399,0,0,0,0,0,0,0.1934,0.1941,0.2004,0.1986,0.1997,0.207,0.2069,0.208,0.213,0.2159,0.2171,0.218,0.2212,0.2221,0.2284,0.2326,0.2271,0.2273,0.2392,0.2395,0.2398,0.2441,0,0,0,0,0,0,0.193,0.1939,0.1971,0.1985,0.1999,0.2047,0.2068,0.208,0.2145,0.2153,0.2203,0.2212,0.2215,0.2281,0.2286,0.2328,0.2275,0.2389,0.2393,0.2397,0.2437,0.2445,0.2452,0,0,0,0,0,0.1926,0.195,0.197,0.1983,0.2029,0.2049,0.2057,0.211,0.2146,0.2163,0.2211,0.2213,0.231,0.2284,0.2289,0.2333,0.2387,0.2392,0.2397,0.2433,0.2444,0.2452,0,0,0,0,0,0,0.1932,0.1961,0.1983,0.2019,0.2048,0.2065,0.2108,0.2134,0.2181,0.2214,0.223,0.2242,0.2319,0.2318,0.2289,0.2384,0.2353,0.2359,0.2379,0.2388,0.2396,0.2432,0.2277,0,0,0,0,0,0.1946,0.1965,0.1995,0.2027,0.2049,0.2084,0.2115,0.2146,0.2182,0.2208,0.2237,0.2283,0.2331,0.2356,0.239,0.2427,0.2451,0.2464,0.2471,0.2478,0.2513,0.2582,0.26,0.2414,0.2414,0.2414,0,0,0.1959,0.198,0.1995,0.2032,0.2061,0.2089,0.2107,0.2162,0.2198,0.2211,0.2278,0.2316,0.2352,0.2407,0.244,0.2416,0.2538,0.2484,0.2489,0.2522,0.2589,0.2607,0.2623,0.2418,0.2417,0.2417,0,0,0.1972,0.2012,0.203,0.2057,0.2118,0.2133,0.2159,0.2197,0.2237,0.2297,0.2328,0.2392,0.2445,0.2473,0.2498,0.2566,0.2585,0.2588,0.2645,0.2711,0.2727,0.2741,0.277,0.2786,0.258,0.258,0.2581,0,0.1995,0.2018,0.2043,0.2069,0.2106,0.2155,0.2185,0.2222,0.2278,0.2325,0.2336,0.2461,0.2478,0.2561,0.2594,0.2584,0.2626,0.26,0.2721,0.2736,0.275,0.2776,0.2794,0.2583,0.2583,0.2583,0.2582,0,0.2007,0.205,0.2068,0.2109,0.2142,0.2184,0.2232,0.2284,0.2345,0.2391,0.2507,0.2537,0.2618,0.2627,0.2639,0.275,0.2747,0.2728,0.2694,0.2772,0.2793,0.2811,0.2587,0.2586,0.2585,0.2585,0,0,0.1986,0.2062,0.2074,0.21,0.2175,0.2187,0.2268,0.2344,0.2411,0.2494,0.2586,0.2674,0.2727,0.276,0.2777,0.2832,0.2942,0.284,0.2842,0.2863,0.3091,0.2893,0.2893,0.2962,0.2966,0.2969,0.3056,0,0.1996,0.2038,0.2085,0.2136,0.2157,0.2234,0.2293,0.2377,0.246,0.2556,0.2651,0.2751,0.2766,0.2821,0.2888,0.2954,0.2999,0.2921,0.302,0.3023,0.2833,0.291,0.2982,0.3069,0.3073,0.3076,0.3078,0,0.1986,0.2017,0.2068,0.214,0.2162,0.2215,0.2321,0.2389,0.2545,0.2619,0.2756,0.2836,0.2978,0.2952,0.3122,0.3088,0.3111,0.3131,0.3134,0.2957,0.2859,0.2985,0.3111,0.3108,0.3106,0.3104,0.3102,0,0.1922,0.2,0.2039,0.2066,0.216,0.2222,0.2296,0.2429,0.2504,0.2689,0.2775,0.2942,0.3057,0.3143,0.323,0.3203,0.3383,0.3325,0.3154,0.3139,0.3271,0.3255,0.3419,0.3419,0.3419,0.3418,0.3418,0,0.1886,0.1919,0.2023,0.2047,0.2114,0.2197,0.2303,0.2402,0.2556,0.2667,0.2828,0.293,0.3127,0.3249,0.3281,0.3293,0.343,0.3194,0.3163,0.3281,0.3266,0.3281,0.3264,0.3422,0.3421,0.342,0.342,0,0.1789,0.1873,0.1916,0.2035,0.2091,0.2138,0.231,0.2367,0.2543,0.2693,0.277,0.2991,0.3163,0.3289,0.3431,0.3341,0.336,0.331,0.344,0.3411,0.3052,0.3037,0.3125,0.3119,0.3114,0.311,0.3106,0,0.173,0.1747,0.189,0.1925,0.1994,0.2097,0.2171,0.2356,0.2428,0.2704,0.276,0.2999,0.3132,0.3182,0.331,0.3345,0.3296,0.3256,0.3146,0.3068,0.3031,0.3023,0.3014,0.3098,0.3097,0.3096,0.3094,0,0.159,0.1668,0.1707,0.1808,0.1896,0.1967,0.2103,0.2149,0.2374,0.2562,0.2708,0.2801,0.2977,0.3086,0.3142,0.3149,0.3261,0.3202,0.3211,0.3107,0.3037,0.3002,0.3,0.3077,0.3079,0.3081,0.3082,0,0.1487,0.1483,0.1568,0.1647,0.1744,0.1797,0.1897,0.2011,0.2129,0.2449,0.2503,0.275,0.2976,0.2983,0.3033,0.304,0.2977,0.2841,0.2868,0.2888,0.2767,0.264,0.2556,0,0,0,0,0,0.137,0.1361,0.1392,0.147,0.1559,0.1642,0.1816,0.1922,0.2182,0.223,0.2361,0.2515,0.2629,0.274,0.27,0.2886,0.2958,0.2818,0.2808,0.298,0.3,0.2878,0,0,0,0,0,0,0.1289,0.1303,0.1327,0.1303,0.1337,0.1428,0.1548,0.1725,0.1771,0.2049,0.2139,0.2337,0.2492,0.2641,0.2648,0.2678,0.261,0.297,0.2962,0.2969,0.2987,0.3003,0.2884,0,0,0,0,0]},{"header":{"parameterUnit":"m.s-1","parameterCategory":2,"la1":30.2991,"la2":30.254,"lo1":-89.0895,"lo2":-89.0444,"dy":0.0017,"dx":0.0017,"nx":28,"ny":28,"refTime":"2024-07-05T21:00:00:Z","depth":"4","parameterNumber":3,"parameterNumberName":"V-component_of_CURRENTS"},"data":[0,0,0,0,0,0,0,0,0,0,0,0,0,0,0,0,0,0,0,0,0,0,0,0,0,0,0,0,0,0,0,0,0,0,0,0,0,0,0,0,0,0,0,0,0,0,0,0,0,0,0,0,0,0,0,0,0,0,0.0133,0.0133,0,0.0114,0.0114,0.0113,0.0087,0.0087,0.0087,0.0086,0.0063,0.0063,0.0062,0,0,0,0,0,0,0,0,0,0,0,0,0,0.0094,0.0095,0.0133,0.0133,0.0133,0.0114,0.0114,0.0113,0.0087,0.0087,0.0087,0.0086,0.0063,0.0063,0.0062,0,0,0,0,0,0,0,0,0,0,0,0,0,0.0094,0.0095,0.0133,0.012,0.0119,0.0114,0.0114,0.0113,0.0087,0.0087,0.0087,0.0086,0.0063,0.0063,0.0062,0.0062,0,0,0.006,0.0059,0,0,0,0,0,0,0,0,0.0094,0.0095,0.0122,0.0121,0.012,0.0106,0.0092,0.0097,0.0087,0.0096,0.0086,0.0086,0.0079,0.0077,0.0069,0.006,0.0059,0.006,0.0059,0.0059,0.0059,0,0,0,0,0,0,0,0.0094,0.0095,0.0122,0.0122,0.0121,0.0098,0.0098,0.0092,0.0086,0.0095,0.0094,0.0097,0.0078,0.007,0.0069,0.0059,0.006,0.0059,0.0059,0.0058,0.0038,0.0038,0,0,0,0,0,0,0.0106,0.0095,0.0123,0.0122,0.011,0.0099,0.0099,0.0108,0.0086,0.0084,0.0097,0.0096,0.0071,0.007,0.0068,0.0084,0.0059,0.0058,0.0058,0.0038,0.0038,0.0038,0,0,0,0,0,0,0.0106,0.0109,0.0124,0.011,0.0111,0.0101,0.0111,0.0108,0.0105,0.0089,0.0085,0.01,0.0071,0.0069,0.0072,0.0082,0.0058,0.0057,0.0038,0.0038,0.0038,0.0105,0,0,0,0,0,0,0.0105,0.0109,0.0117,0.0112,0.0113,0.0129,0.0111,0.0107,0.0109,0.0107,0.009,0.0087,0.0071,0.0073,0.0071,0.0081,0.0057,0.0038,0.0038,0.0038,0.0103,0.0107,0.011,0,0,0,0,0,0.0103,0.0125,0.0117,0.012,0.0125,0.013,0.0128,0.0116,0.011,0.0112,0.0102,0.0088,0.0069,0.0073,0.007,0.008,0.0038,0.0038,0.0038,0.0101,0.0106,0.011,0,0,0,0,0,0,0.0114,0.0124,0.0116,0.0139,0.0135,0.0127,0.0133,0.0123,0.0116,0.0119,0.0096,0.0093,0.0094,0.0076,0.008,0.007,0.0047,0.0047,0.0096,0.0101,0.0105,0.0117,0.0056,0,0,0,0,0,0.012,0.0136,0.0135,0.0152,0.0155,0.0143,0.0143,0.0139,0.0134,0.0131,0.0118,0.0102,0.0089,0.0089,0.0072,0.0078,0.0039,0.0077,0.0081,0.0084,0.009,0.0042,0.0042,0.0037,0.0037,0.0037,0,0,0.0129,0.0136,0.0145,0.0155,0.0152,0.0168,0.0142,0.0154,0.0167,0.0131,0.0144,0.0118,0.0092,0.0092,0.0091,0.0083,0.0062,0.0084,0.0088,0.0092,0.0042,0.0042,0.0043,0.0037,0.0037,0.0037,0,0,0.0161,0.0163,0.0186,0.0191,0.0197,0.0192,0.0199,0.0196,0.0192,0.0199,0.0172,0.0155,0.0142,0.0123,0.0111,0.0127,0.0082,0.0118,0.0157,0.011,0.011,0.011,0.0052,0.0047,0.0125,0.0125,0.0125,0,0.0169,0.0204,0.0192,0.0217,0.0234,0.0208,0.0241,0.0232,0.0229,0.0231,0.0212,0.0177,0.0154,0.015,0.0152,0.0137,0.0099,0.0147,0.0116,0.0115,0.0114,0.0055,0.0048,0.0128,0.0128,0.0127,0.0127,0,0.0218,0.0246,0.0264,0.0288,0.0298,0.0325,0.0318,0.0321,0.031,0.0296,0.0284,0.0242,0.0222,0.0205,0.0187,0.017,0.0141,0.0125,0.011,0.0119,0.0056,0.0047,0.0133,0.0131,0.013,0.013,0,0,0.0243,0.0291,0.0298,0.0329,0.0345,0.0365,0.0383,0.0393,0.041,0.0374,0.0381,0.0339,0.0304,0.0287,0.0251,0.021,0.0162,0.0173,0.0168,0.0125,0.0049,0.0046,0.0035,0.0144,0.0143,0.0142,0.0006,0,0.0287,0.0358,0.0367,0.0434,0.0473,0.0465,0.049,0.049,0.0473,0.0467,0.0404,0.0395,0.0339,0.0334,0.028,0.0199,0.0144,0.02,0.0039,0.0034,0.0037,0.0027,0.0139,-0.0001,-0.0003,-0.0004,-0.0005,0,0.0335,0.0381,0.046,0.0526,0.0543,0.0579,0.0617,0.0635,0.0607,0.0594,0.0551,0.0493,0.0432,0.038,0.023,0.027,0.0165,0.0088,0.0081,0.005,0.0014,-0.0013,-0.0022,-0.0021,-0.0019,-0.0018,-0.0017,0,0.0372,0.0448,0.052,0.0543,0.0605,0.0645,0.0677,0.0679,0.0709,0.0676,0.068,0.0578,0.0544,0.0398,0.0225,0.0232,0.0041,0.003,-0.0082,-0.0084,-0.0069,-0.0067,-0.0089,-0.0089,-0.0089,-0.0089,-0.0088,0,0.0424,0.0482,0.0552,0.0595,0.069,0.0709,0.0793,0.0802,0.0818,0.0857,0.0756,0.0746,0.0549,0.041,0.0241,0.0049,0.0046,-0.008,-0.0117,-0.004,-0.0034,-0.0076,-0.0073,-0.0094,-0.0093,-0.0092,-0.0091,0,0.0458,0.05,0.0594,0.068,0.0715,0.0788,0.0893,0.0944,0.095,0.0992,0.0989,0.0874,0.0708,0.048,0.0238,0.0093,-0.0104,-0.0179,-0.0093,-0.0123,-0.0204,-0.0196,-0.0299,-0.03,-0.0301,-0.0302,-0.0303,0,0.0486,0.0536,0.0657,0.0724,0.0776,0.0883,0.0959,0.1011,0.1067,0.1068,0.1089,0.0949,0.0841,0.049,0.0248,-0.0089,-0.0135,-0.0254,-0.0218,-0.0198,-0.0225,-0.0215,-0.0205,-0.0304,-0.0305,-0.0305,-0.0305,0,0.0534,0.0576,0.0651,0.0788,0.0893,0.1011,0.1121,0.1169,0.122,0.1223,0.1175,0.0991,0.0797,0.0513,0.0241,0.0,-0.0181,-0.0265,-0.0264,-0.0231,-0.0206,-0.0229,-0.0219,-0.0309,-0.0308,-0.0308,-0.0308,0,0.0567,0.0626,0.0722,0.0849,0.0981,0.1105,0.1161,0.1227,0.1281,0.1274,0.1251,0.1036,0.0911,0.0558,0.0307,0.0069,0.0021,-0.0062,-0.0072,-0.0071,0.0034,0.0101,0.0061,0,0,0,0,0,0.0599,0.0663,0.0772,0.0916,0.1049,0.1131,0.1252,0.1293,0.1334,0.1316,0.129,0.1107,0.0759,0.0605,0.0371,0.0281,-0.0032,-0.0003,-0.0135,-0.0328,-0.0324,-0.0239,0,0,0,0,0,0,0.0613,0.0715,0.0769,0.0948,0.1052,0.1207,0.1291,0.1321,0.1309,0.1303,0.1124,0.104,0.0702,0.0897,0.0365,0.0293,0.0174,-0.0163,-0.0168,-0.0331,-0.0327,-0.0324,-0.0235,0,0,0,0,0]}]]